05.05.2024;22:00;21
05.05.2024;21:00;36
05.05.2024;20:00;58
05.05.2024;19:00;60
05.05.2024;18:00;65
05.05.2024;17:00;68
05.05.2024;16:00;75
05.05.2024;15:00;67
05.05.2024;14:00;70
05.05.2024;13:00;74
05.05.2024;12:00;71
05.05.2024;11:00;69
05.05.2024;10:00;59
05.05.2024;09:00;9
05.05.2024;08:00;4
05.05.2024;07:00;1
05.05.2024;06:00;1
05.05.2024;05:00;1
05.05.2024;04:00;1
05.05.2024;03:00;3
05.05.2024;02:00;6
05.05.2024;01:00;8
05.05.2024;00:00;14
04.05.2024;23:00;18
04.05.2024;22:00;28
04.05.2024;21:00;51
04.05.2024;20:00;76
04.05.2024;19:00;79
04.05.2024;18:00;76
04.05.2024;17:00;71
04.05.2024;16:00;61
04.05.2024;15:00;57
04.05.2024;14:00;50
04.05.2024;13:00;49
04.05.2024;12:00;52
04.05.2024;11:00;52
04.05.2024;10:00;47
04.05.2024;09:00;46
04.05.2024;08:00;41
04.05.2024;07:00;34
04.05.2024;06:00;36
04.05.2024;05:00;40
04.05.2024;04:00;41
04.05.2024;03:00;41
04.05.2024;02:00;50
04.05.2024;01:00;55
04.05.2024;00:00;57
03.05.2024;23:00;59
